| time (UTC) | temp F | wind direction | speed knots | gust knots | rain 1hr in | rain 24hr in | rain mn in | humidity % | barometer mb |
| 20260510214040 | 66 | 205 | 1.7 | 3.5 | 0.00 | 0.00 | 0.00 | 72 | 1001.0 |
| 20260510213811 | 66 | 169 | 1.7 | 5.2 | 0.00 | 0.00 | 0.00 | 72 | 1001.0 |
| 20260510213041 | 66 | 213 | 1.7 | 5.2 | 0.00 | 0.00 | 0.00 | 73 | 1001.0 |
| 20260510212541 | 66 | 0 | 1.7 | 4.3 | 0.00 | 0.00 | 0.00 | 78 | 1001.0 |
| 20260510212037 | 66 | 133 | 1.7 | 4.3 | 0.00 | 0.00 | 0.00 | 79 | 1000.9 |
| 20260510211808 | 66 | 0 | 1.7 | 4.3 | 0.00 | 0.00 | 0.00 | 79 | 1000.8 |
| 20260510211037 | 66 | 105 | 1.7 | 4.3 | 0.00 | 0.00 | 0.00 | 77 | 1001.0 |
| 20260510210536 | 67 | 180 | 1.7 | 4.3 | 0.00 | 0.00 | 0.00 | 77 | 1001.0 |
| 20260510210035 | 66 | 155 | 1.7 | 4.3 | 0.00 | 0.00 | 0.00 | 76 | 1000.9 |
| 20260510205534 | 67 | 277 | 1.7 | 3.5 | 0.00 | 0.00 | 0.00 | 76 | 1000.8 |
| 20260510205035 | 67 | 127 | 1.7 | 3.5 | 0.00 | 0.00 | 0.00 | 76 | 1000.8 |
| 20260510204535 | 67 | 178 | 1.7 | 3.5 | 0.00 | 0.00 | 0.00 | 76 | 1000.7 |
| 20260510204305 | 67 | 177 | 1.7 | 3.5 | 0.00 | 0.00 | 0.00 | 75 | 1000.4 |
| 20260510203806 | 67 | 154 | 1.7 | 3.5 | 0.00 | 0.00 | 0.00 | 76 | 1000.3 |
| 20260510203035 | 67 | 158 | 1.7 | 3.5 | 0.00 | 0.00 | 0.00 | 76 | 1000.4 |
| 20260510202536 | 67 | 193 | 1.7 | 3.5 | 0.00 | 0.00 | 0.00 | 75 | 1000.3 |
| 20260510202036 | 67 | 192 | 1.7 | 5.2 | 0.00 | 0.00 | 0.00 | 74 | 1000.3 |
| 20260510201532 | 67 | 178 | 2.6 | 5.2 | 0.00 | 0.00 | 0.00 | 74 | 1000.2 |
| 20260510201033 | 68 | 181 | 2.6 | 5.2 | 0.00 | 0.00 | 0.00 | 74 | 1000.1 |
| 20260510200532 | 68 | 190 | 2.6 | 4.3 | 0.00 | 0.00 | 0.00 | 74 | 1000.1 |
| 20260510200304 | 68 | 167 | 2.6 | 4.3 | 0.00 | 0.00 | 0.00 | 73 | 1000.2 |
| 20260510195540 | 68 | 172 | 1.7 | 3.5 | 0.00 | 0.00 | 0.00 | 72 | 1000.4 |
| 20260510195533 | 68 | 167 | 1.7 | 3.5 | 0.00 | 0.00 | 0.00 | 73 | 1000.3 |
| 20260510194804 | 68 | 309 | 1.7 | 3.5 | 0.00 | 0.00 | 0.00 | 73 | 1000.3 |
| 20260510194033 | 68 | 185 | 2.6 | 3.5 | 0.00 | 0.00 | 0.00 | 72 | 1000.4 |
| 20260510193533 | 69 | 136 | 2.6 | 4.3 | 0.00 | 0.00 | 0.00 | 72 | 1000.3 |
| 20260510193033 | 69 | 260 | 2.6 | 4.3 | 0.00 | 0.00 | 0.00 | 72 | 1000.4 |
| 20260510192804 | 69 | 192 | 2.6 | 4.3 | 0.00 | 0.00 | 0.00 | 71 | 1000.4 |
| 20260510192040 | 70 | 161 | 1.7 | 4.3 | 0.00 | 0.00 | 0.00 | 68 | 1000.4 |
| 20260510192033 | 70 | 214 | 1.7 | 4.3 | 0.00 | 0.00 | 0.00 | 69 | 1000.3 |
| 20260510191032 | 70 | 184 | 1.7 | 4.3 | 0.00 | 0.00 | 0.00 | 68 | 1000.4 |
| 20260510190802 | 70 | 146 | 2.6 | 5.2 | 0.00 | 0.00 | 0.00 | 69 | 1000.5 |
| 20260510190031 | 70 | 255 | 2.6 | 5.2 | 0.00 | 0.00 | 0.00 | 67 | 1000.5 |
| 20260510185532 | 70 | 168 | 1.7 | 4.3 | 0.00 | 0.00 | 0.00 | 68 | 1000.6 |
| 20260510185031 | 70 | 177 | 1.7 | 4.3 | 0.00 | 0.00 | 0.00 | 69 | 1000.7 |
| 20260510184532 | 70 | 191 | 2.6 | 5.2 | 0.00 | 0.00 | 0.00 | 68 | 1000.8 |
| 20260510184038 | 70 | 142 | 2.6 | 7.0 | 0.00 | 0.00 | 0.00 | 70 | 1000.6 |
| 20260510184032 | 70 | 179 | 2.6 | 5.2 | 0.00 | 0.00 | 0.00 | 70 | 1000.7 |
| 20260510183303 | 70 | 166 | 2.6 | 7.0 | 0.00 | 0.00 | 0.00 | 68 | 1000.6 |
| 20260510182806 | 70 | 163 | 1.7 | 5.2 | 0.00 | 0.00 | 0.00 | 69 | 1000.7 |
| 20260510182528 | 70 | 208 | 2.6 | 5.2 | 0.00 | 0.00 | 0.00 | 68 | 1000.7 |
| 20260510181526 | 70 | 230 | 1.7 | 4.3 | 0.00 | 0.00 | 0.00 | 68 | 1000.6 |
| 20260510181026 | 70 | 196 | 2.6 | 4.3 | 0.00 | 0.00 | 0.00 | 67 | 1000.7 |
| 20260510180527 | 69 | 187 | 1.7 | 4.3 | 0.00 | 0.00 | 0.00 | 69 | 1000.8 |
| 20260510180025 | 69 | 138 | 1.7 | 5.2 | 0.00 | 0.00 | 0.00 | 70 | 1000.7 |
| 20260510175533 | 68 | 227 | 1.7 | 4.3 | 0.00 | 0.00 | 0.00 | 69 | 1000.8 |
| 20260510175526 | 69 | 280 | 1.7 | 5.2 | 0.00 | 0.00 | 0.00 | 70 | 1000.8 |
| 20260510174526 | 68 | 306 | 1.7 | 3.5 | 0.00 | 0.00 | 0.00 | 73 | 1001.0 |
| 20260510174025 | 67 | 343 | 1.7 | 4.3 | 0.00 | 0.00 | 0.00 | 73 | 1001.0 |
| 20260510173526 | 67 | 307 | 1.7 | 4.3 | 0.00 | 0.00 | 0.00 | 73 | 1000.9 |
| 20260510173025 | 67 | 145 | 1.7 | 3.5 | 0.00 | 0.00 | 0.00 | 74 | 1001.0 |
| 20260510172525 | 67 | 186 | 1.7 | 4.3 | 0.00 | 0.00 | 0.00 | 75 | 1001.0 |
| 20260510172024 | 67 | 321 | 1.7 | 4.3 | 0.00 | 0.00 | 0.00 | 71 | 1001.0 |
| 20260510171521 | 66 | 195 | 1.7 | 3.5 | 0.00 | 0.00 | 0.00 | 76 | 1001.0 |
| 20260510171021 | 66 | 150 | 0.9 | 3.5 | 0.00 | 0.00 | 0.00 | 77 | 1001.1 |
| 20260510170752 | 66 | 145 | 1.7 | 4.3 | 0.00 | 0.00 | 0.00 | 77 | 1001.2 |
| 20260510170020 | 66 | 169 | 1.7 | 4.3 | 0.00 | 0.00 | 0.00 | 75 | 1001.3 |
| 20260510165521 | 65 | 160 | 0.9 | 3.5 | 0.00 | 0.00 | 0.00 | 77 | 1001.3 |
| 20260510165021 | 65 | 0 | 0.9 | 3.5 | 0.00 | 0.00 | 0.00 | 77 | 1001.4 |
| 20260510164521 | 65 | 189 | 1.7 | 3.5 | 0.00 | 0.00 | 0.00 | 78 | 1001.4 |
| 20260510164020 | 65 | 0 | 1.7 | 6.1 | 0.00 | 0.00 | 0.00 | 79 | 1001.4 |
| 20260510163522 | 65 | 180 | 2.6 | 6.1 | 0.00 | 0.00 | 0.00 | 77 | 1001.5 |
| 20260510163022 | 66 | 178 | 2.6 | 6.1 | 0.00 | 0.00 | 0.00 | 77 | 1001.4 |
| 20260510162752 | 66 | 195 | 1.7 | 5.2 | 0.00 | 0.00 | 0.00 | 76 | 1001.5 |
| 20260510162409 | 65 | 218 | 1.7 | 4.3 | 0.00 | 0.00 | 0.00 | 79 | 1001.4 |
| 20260510162256 | 65 | 264 | 1.7 | 5.2 | 0.00 | 0.00 | 0.00 | 77 | 1001.4 |
| 20260510161019 | 64 | 227 | 1.7 | 4.3 | 0.00 | 0.00 | 0.00 | 80 | 1001.5 |
| 20260510160519 | 64 | 143 | 1.7 | 4.3 | 0.00 | 0.00 | 0.00 | 80 | 1001.6 |
| 20260510160026 | 64 | 0 | 0.9 | 4.3 | 0.00 | 0.00 | 0.00 | 79 | 1001.6 |
| 20260510160020 | 64 | 176 | 0.9 | 3.5 | 0.00 | 0.00 | 0.00 | 79 | 1001.6 |
| 20260510155020 | 63 | 214 | 0.9 | 4.3 | 0.00 | 0.00 | 0.00 | 80 | 1001.7 |
| 20260510154520 | 63 | 122 | 0.9 | 3.5 | 0.00 | 0.00 | 0.00 | 81 | 1001.8 |
| 20260510154020 | 63 | 198 | 0.0 | 2.6 | 0.00 | 0.00 | 0.00 | 80 | 1001.8 |
| 20260510153520 | 62 | 136 | 0.9 | 3.5 | 0.00 | 0.00 | 0.00 | 80 | 1001.8 |
| 20260510153250 | 62 | 0 | 1.7 | 3.5 | 0.00 | 0.00 | 0.00 | 81 | 1001.8 |
| 20260510152520 | 62 | 191 | 1.7 | 4.3 | 0.00 | 0.00 | 0.00 | 82 | 1001.8 |
| 20260510152017 | 62 | 141 | 1.7 | 4.3 | 0.00 | 0.00 | 0.00 | 82 | 1001.7 |
| 20260510151514 | 61 | 186 | 1.7 | 3.5 | 0.00 | 0.00 | 0.00 | 82 | 1001.7 |
| 20260510151014 | 61 | 137 | 0.9 | 3.5 | 0.00 | 0.00 | 0.00 | 83 | 1001.8 |
| 20260510150515 | 61 | 185 | 0.9 | 2.6 | 0.00 | 0.00 | 0.00 | 84 | 1001.8 |
| 20260510150010 | 61 | 131 | 0.9 | 2.6 | 0.00 | 0.00 | 0.00 | 84 | 1001.8 |
| 20260510145511 | 60 | 206 | 0.9 | 2.6 | 0.00 | 0.00 | 0.00 | 84 | 1001.8 |
| 20260510145011 | 60 | 162 | 0.9 | 2.6 | 0.00 | 0.00 | 0.00 | 85 | 1001.7 |
| 20260510144511 | 60 | 0 | 0.9 | 1.7 | 0.00 | 0.00 | 0.00 | 84 | 1001.7 |
| 20260510144007 | 60 | 165 | 0.9 | 1.7 | 0.00 | 0.00 | 0.00 | 84 | 1001.7 |
| 20260510143508 | 60 | 141 | 0.9 | 2.6 | 0.00 | 0.00 | 0.00 | 84 | 1001.7 |
| 20260510143007 | 59 | 226 | 0.9 | 2.6 | 0.00 | 0.00 | 0.00 | 83 | 1001.8 |
| 20260510142507 | 59 | 184 | 0.9 | 2.6 | 0.00 | 0.00 | 0.00 | 86 | 1001.7 |
| 20260510142007 | 58 | 142 | 0.9 | 2.6 | 0.00 | 0.00 | 0.00 | 86 | 1001.6 |
| 20260510141508 | 58 | 258 | 0.9 | 3.5 | 0.00 | 0.00 | 0.00 | 87 | 1001.5 |
| 20260510141226 | 58 | 250 | 1.7 | 3.5 | 0.00 | 0.00 | 0.00 | 87 | 1001.4 |
| 20260510140725 | 57 | 282 | 0.9 | 3.5 | 0.00 | 0.00 | 0.00 | 89 | 1001.4 |
| 20260510135955 | 57 | 177 | 0.9 | 2.6 | 0.00 | 0.00 | 0.00 | 89 | 1001.5 |
| 20260510135727 | 56 | 339 | 0.9 | 2.6 | 0.00 | 0.00 | 0.00 | 89 | 1001.4 |
| 20260510134955 | 56 | 205 | 0.0 | 1.7 | 0.00 | 0.00 | 0.00 | 89 | 1001.5 |
| 20260510134455 | 56 | 0 | 0.0 | 1.7 | 0.00 | 0.00 | 0.00 | 89 | 1001.6 |
| 20260510133955 | 56 | 215 | 0.0 | 0.9 | 0.00 | 0.00 | 0.00 | 89 | 1001.5 |
| 20260510133454 | 56 | 0 | 0.9 | 1.7 | 0.00 | 0.00 | 0.00 | 89 | 1001.5 |
| 20260510132955 | 56 | 200 | 0.9 | 1.7 | 0.00 | 0.00 | 0.00 | 88 | 1001.5 |
| 20260510132440 | 57 | 201 | 0.9 | 1.7 | 0.00 | 0.00 | 0.00 | 88 | 1001.4 |
| 20260510131941 | 57 | 144 | 0.9 | 3.5 | 0.00 | 0.00 | 0.00 | 88 | 1001.5 |
| 20260510131441 | 57 | 174 | 0.9 | 3.5 | 0.00 | 0.00 | 0.00 | 88 | 1001.5 |
| 20260510130941 | 57 | 208 | 0.9 | 2.6 | 0.00 | 0.00 | 0.00 | 88 | 1001.4 |
| 20260510130711 | 57 | 186 | 0.9 | 1.7 | 0.00 | 0.00 | 0.00 | 87 | 1001.4 |
| 20260510125940 | 57 | 0 | 0.9 | 3.5 | 0.00 | 0.00 | 0.00 | 88 | 1001.4 |
| 20260510125440 | 57 | 154 | 0.9 | 3.5 | 0.00 | 0.00 | 0.00 | 88 | 1001.4 |
| 20260510124941 | 57 | 216 | 0.9 | 3.5 | 0.00 | 0.00 | 0.00 | 87 | 1001.4 |
| 20260510124441 | 56 | 137 | 0.9 | 3.5 | 0.00 | 0.00 | 0.00 | 88 | 1001.3 |
| 20260510123941 | 56 | 0 | 0.9 | 2.6 | 0.00 | 0.00 | 0.00 | 88 | 1001.2 |
| 20260510123441 | 56 | 286 | 0.9 | 2.6 | 0.00 | 0.00 | 0.00 | 89 | 1001.1 |
| 20260510123212 | 56 | 339 | 0.9 | 0.9 | 0.00 | 0.00 | 0.00 | 90 | 1001.0 |
| 20260510122441 | 55 | 0 | 0.0 | 0.9 | 0.00 | 0.00 | 0.00 | 91 | 1001.1 |
| 20260510121941 | 55 | 0 | 0.9 | 1.7 | 0.00 | 0.00 | 0.00 | 90 | 1001.0 |
| 20260510121441 | 55 | 160 | 0.9 | 1.7 | 0.00 | 0.00 | 0.00 | 90 | 1001.2 |
| 20260510120927 | 55 | 127 | 0.0 | 1.7 | 0.00 | 0.00 | 0.00 | 93 | 1001.3 |
| 20260510120427 | 54 | 106 | 0.0 | 1.7 | 0.00 | 0.00 | 0.00 | 93 | 1001.2 |
| 20260510115927 | 54 | 72 | 0.9 | 1.7 | 0.00 | 0.00 | 0.00 | 93 | 1001.1 |
| 20260510115427 | 53 | 71 | 0.9 | 1.7 | 0.00 | 0.00 | 0.00 | 94 | 1001.1 |
| 20260510115159 | 53 | 0 | 0.9 | 1.7 | 0.00 | 0.00 | 0.00 | 95 | 1001.0 |
| 20260510114427 | 53 | 0 | 0.9 | 1.7 | 0.00 | 0.00 | 0.00 | 95 | 1001.1 |
| 20260510113927 | 53 | 187 | 0.9 | 1.7 | 0.00 | 0.00 | 0.00 | 95 | 1001.2 |
| 20260510113427 | 52 | 177 | 0.9 | 1.7 | 0.00 | 0.00 | 0.00 | 95 | 1001.1 |
| 20260510113157 | 52 | 141 | 0.0 | 1.7 | 0.00 | 0.00 | 0.00 | 95 | 1000.9 |
| 20260510112659 | 52 | 0 | 0.0 | 0.9 | 0.00 | 0.00 | 0.00 | 96 | 1001.1 |
| 20260510112537 | 52 | 0 | 0.0 | 0.9 | 0.00 | 0.00 | 0.00 | 96 | 1000.9 |
| 20260510111412 | 52 | 119 | 0.0 | 0.9 | 0.00 | 0.00 | 0.00 | 96 | 1000.8 |
| 20260510110911 | 52 | 0 | 0.0 | 0.9 | 0.00 | 0.00 | 0.00 | 96 | 1000.9 |
| 20260510110412 | 52 | 0 | 0.0 | 0.9 | 0.00 | 0.00 | 0.00 | 96 | 1000.9 |
| 20260510105911 | 52 | 0 | 0.9 | 1.7 | 0.00 | 0.00 | 0.00 | 96 | 1000.9 |
| 20260510105418 | 52 | 102 | 0.0 | 0.9 | 0.00 | 0.00 | 0.00 | 96 | 1000.7 |
| 20260510105412 | 52 | 159 | 0.9 | 1.7 | 0.00 | 0.00 | 0.00 | 96 | 1000.7 |
| 20260510104644 | 52 | 0 | 0.0 | 0.0 | 0.00 | 0.00 | 0.00 | 96 | 1000.7 |
| 20260510103911 | 52 | 0 | 0.0 | 0.9 | 0.00 | 0.00 | 0.00 | 96 | 1000.8 |
| 20260510103412 | 52 | 0 | 0.9 | 1.7 | 0.00 | 0.00 | 0.00 | 96 | 1000.8 |
| 20260510102858 | 52 | 280 | 1.7 | 2.6 | 0.00 | 0.00 | 0.00 | 96 | 1000.5 |
| 20260510102359 | 52 | 197 | 1.7 | 3.5 | 0.00 | 0.00 | 0.00 | 96 | 1000.2 |
| 20260510102129 | 52 | 146 | 0.9 | 3.5 | 0.00 | 0.00 | 0.00 | 96 | 1000.0 |
| 20260510101345 | 52 | 153 | 0.9 | 2.6 | 0.00 | 0.00 | 0.00 | 97 | 1000.3 |
| 20260510100844 | 52 | 189 | 0.9 | 2.6 | 0.00 | 0.00 | 0.00 | 97 | 1000.4 |
| 20260510100345 | 52 | 170 | 1.7 | 1.7 | 0.00 | 0.00 | 0.00 | 97 | 1000.5 |
| 20260510095617 | 52 | 129 | 0.9 | 1.7 | 0.00 | 0.00 | 0.00 | 97 | 1000.6 |
| 20260510095113 | 52 | 131 | 0.0 | 2.6 | 0.00 | 0.00 | 0.00 | 97 | 1000.7 |
| 20260510094618 | 52 | 142 | 0.9 | 2.6 | 0.00 | 0.00 | 0.00 | 97 | 1000.6 |
| 20260510094113 | 52 | 156 | 0.9 | 1.7 | 0.00 | 0.00 | 0.00 | 97 | 1000.5 |
| 20260510093613 | 52 | 127 | 0.9 | 1.7 | 0.00 | 0.00 | 0.00 | 97 | 1000.6 |
| 20260510093344 | 52 | 138 | 0.9 | 1.7 | 0.00 | 0.00 | 0.00 | 97 | 1000.6 |
| 20260510092613 | 52 | 0 | 0.9 | 2.6 | 0.00 | 0.00 | 0.00 | 97 | 1000.5 |
| 20260510092112 | 52 | 143 | 1.7 | 2.6 | 0.00 | 0.00 | 0.00 | 97 | 1000.6 |
| 20260510091613 | 52 | 0 | 0.9 | 1.7 | 0.00 | 0.00 | 0.00 | 97 | 1000.7 |
| 20260510091100 | 52 | 135 | 0.0 | 1.7 | 0.00 | 0.00 | 0.00 | 97 | 1000.8 |
| 20260510090831 | 52 | 0 | 0.0 | 1.7 | 0.00 | 0.00 | 0.00 | 97 | 1000.8 |
| 20260510090100 | 52 | 0 | 0.0 | 0.0 | 0.00 | 0.00 | 0.00 | 97 | 1000.8 |
| 20260510085559 | 52 | 0 | 0.0 | 0.9 | 0.00 | 0.00 | 0.00 | 97 | 1000.7 |
| 20260510085100 | 52 | 0 | 0.0 | 0.9 | 0.00 | 0.00 | 0.00 | 97 | 1000.6 |
| 20260510084600 | 52 | 0 | 0.0 | 1.7 | 0.00 | 0.00 | 0.00 | 97 | 1000.6 |
| 20260510084100 | 52 | 0 | 0.0 | 1.7 | 0.00 | 0.00 | 0.00 | 97 | 1000.5 |
| 20260510083600 | 52 | 0 | 0.0 | 1.7 | 0.00 | 0.00 | 0.00 | 97 | 1000.5 |
| 20260510083100 | 52 | 0 | 0.0 | 0.0 | 0.00 | 0.00 | 0.00 | 97 | 1000.5 |
| 20260510082600 | 52 | 0 | 0.9 | 2.6 | 0.00 | 0.00 | 0.00 | 97 | 1000.5 |
| 20260510082100 | 52 | 0 | 0.9 | 2.6 | 0.00 | 0.00 | 0.00 | 97 | 1000.4 |
| 20260510081600 | 52 | 0 | 0.0 | 0.9 | 0.00 | 0.00 | 0.00 | 97 | 1000.4 |
| 20260510081316 | 52 | 158 | 0.0 | 1.7 | 0.00 | 0.00 | 0.00 | 97 | 1000.4 |
| 20260510081155 | 52 | 0 | 0.9 | 1.7 | 0.00 | 0.00 | 0.00 | 97 | 1000.3 |
| 20260510080317 | 52 | 158 | 0.9 | 2.6 | 0.00 | 0.00 | 0.00 | 97 | 1000.2 |
| 20260510075545 | 52 | 169 | 0.9 | 2.6 | 0.00 | 0.00 | 0.00 | 97 | 1000.1 |
| 20260510075046 | 52 | 0 | 0.9 | 1.7 | 0.00 | 0.00 | 0.00 | 97 | 1000.2 |
| 20260510074546 | 52 | 182 | 0.9 | 1.7 | 0.00 | 0.00 | 0.00 | 97 | 1000.2 |
| 20260510074046 | 52 | 0 | 0.9 | 2.6 | 0.00 | 0.00 | 0.00 | 97 | 1000.2 |
| 20260510073531 | 52 | 156 | 0.9 | 2.6 | 0.00 | 0.00 | 0.00 | 97 | 1000.2 |
| 20260510073031 | 52 | 185 | 0.9 | 2.6 | 0.00 | 0.00 | 0.00 | 97 | 1000.2 |
| 20260510072532 | 52 | 140 | 0.9 | 1.7 | 0.00 | 0.00 | 0.00 | 97 | 1000.2 |
| 20260510072032 | 52 | 0 | 0.9 | 2.6 | 0.00 | 0.00 | 0.00 | 97 | 1000.2 |
| 20260510071519 | 52 | 139 | 0.9 | 2.6 | 0.00 | 0.00 | 0.00 | 97 | 1000.2 |
| 20260510071016 | 52 | 141 | 0.9 | 2.6 | 0.00 | 0.00 | 0.00 | 97 | 1000.2 |
| 20260510070518 | 52 | 0 | 0.9 | 1.7 | 0.00 | 0.00 | 0.00 | 97 | 1000.3 |
| 20260510070016 | 52 | 169 | 0.9 | 1.7 | 0.00 | 0.00 | 0.00 | 97 | 1000.3 |
| 20260510065518 | 52 | 0 | 0.9 | 1.7 | 0.00 | 0.00 | 0.00 | 97 | 1000.2 |
| 20260510065247 | 52 | 158 | 0.9 | 2.6 | 0.00 | 0.00 | 0.00 | 97 | 1000.1 |
| 20260510064519 | 52 | 111 | 0.9 | 2.6 | 0.00 | 0.00 | 0.00 | 97 | 1000.1 |
| 20260510064016 | 52 | 173 | 0.0 | 1.7 | 0.00 | 0.00 | 0.00 | 97 | 1000.1 |
| 20260510063520 | 52 | 0 | 0.0 | 1.7 | 0.00 | 0.00 | 0.00 | 97 | 999.9 |
| 20260510063248 | 52 | 169 | 0.9 | 2.6 | 0.00 | 0.00 | 0.00 | 97 | 999.8 |
| 20260510063126 | 52 | 162 | 0.9 | 2.6 | 0.00 | 0.00 | 0.00 | 97 | 999.8 |
| 20260510062016 | 52 | 0 | 0.9 | 2.6 | 0.00 | 0.00 | 0.00 | 97 | 999.8 |
| 20260510061505 | 52 | 169 | 0.9 | 2.6 | 0.00 | 0.00 | 0.00 | 97 | 999.8 |
| 20260510061002 | 52 | 155 | 1.7 | 3.5 | 0.00 | 0.00 | 0.00 | 97 | 999.8 |
| 20260510060736 | 52 | 0 | 1.7 | 3.5 | 0.00 | 0.00 | 0.00 | 97 | 999.8 |
| 20260510060003 | 52 | 171 | 0.9 | 2.6 | 0.00 | 0.00 | 0.00 | 97 | 999.8 |
| 20260510055504 | 52 | 157 | 0.9 | 2.6 | 0.00 | 0.00 | 0.00 | 97 | 999.8 |
| 20260510055003 | 52 | 143 | 0.9 | 2.6 | 0.00 | 0.00 | 0.00 | 97 | 999.9 |
| 20260510054735 | 52 | 147 | 0.9 | 2.6 | 0.00 | 0.00 | 0.00 | 97 | 999.9 |
| 20260510054235 | 52 | 146 | 0.9 | 2.6 | 0.00 | 0.00 | 0.00 | 97 | 999.9 |
| 20260510053456 | 52 | 143 | 0.9 | 2.6 | 0.00 | 0.00 | 0.00 | 97 | 999.9 |
| 20260510053450 | 52 | 154 | 1.7 | 2.6 | 0.00 | 0.00 | 0.00 | 97 | 999.9 |
| 20260510052435 | 52 | 152 | 0.9 | 2.6 | 0.00 | 0.00 | 0.00 | 97 | 1000.0 |
| 20260510051918 | 52 | 142 | 0.9 | 2.6 | 0.00 | 0.00 | 0.00 | 97 | 1000.2 |
| 20260510051420 | 52 | 148 | 0.0 | 1.7 | 0.00 | 0.00 | 0.00 | 97 | 1000.3 |
| 20260510050917 | 52 | 152 | 0.0 | 1.7 | 0.00 | 0.00 | 0.00 | 97 | 1000.3 |
| 20260510050651 | 52 | 0 | 0.9 | 1.7 | 0.00 | 0.00 | 0.00 | 97 | 1000.2 |
| 20260510045918 | 52 | 156 | 0.9 | 2.6 | 0.00 | 0.00 | 0.00 | 97 | 1000.1 |
| 20260510045420 | 52 | 165 | 0.9 | 2.6 | 0.00 | 0.00 | 0.00 | 97 | 1000.2 |
| 20260510045149 | 52 | 155 | 0.0 | 1.7 | 0.00 | 0.00 | 0.00 | 97 | 1000.1 |
| 20260510044420 | 52 | 0 | 0.0 | 0.9 | 0.00 | 0.00 | 0.00 | 97 | 1000.1 |
| 20260510043918 | 52 | 0 | 0.0 | 2.6 | 0.00 | 0.00 | 0.00 | 97 | 1000.0 |
| 20260510043419 | 52 | 286 | 0.9 | 2.6 | 0.00 | 0.00 | 0.00 | 97 | 999.9 |
| 20260510042918 | 52 | 0 | 0.0 | 0.9 | 0.00 | 0.00 | 0.00 | 97 | 999.9 |
| 20260510042420 | 52 | 82 | 0.0 | 0.9 | 0.00 | 0.00 | 0.00 | 97 | 999.9 |
| 20260510041918 | 52 | 114 | 0.0 | 1.7 | 0.00 | 0.00 | 0.00 | 97 | 1000.1 |
| 20260510041420 | 52 | 0 | 0.9 | 1.7 | 0.00 | 0.00 | 0.00 | 97 | 1000.1 |
| 20260510041149 | 52 | 176 | 0.9 | 1.7 | 0.00 | 0.00 | 0.00 | 97 | 1000.1 |
| 20260510040420 | 52 | 146 | 1.7 | 1.7 | 0.00 | 0.00 | 0.00 | 97 | 1000.1 |
| 20260510035850 | 52 | 0 | 0.9 | 2.6 | 0.00 | 0.51 | 0.00 | 97 | 1000.2 |
| 20260510035350 | 52 | 166 | 0.9 | 1.7 | 0.00 | 0.51 | 0.00 | 97 | 1000.0 |
| 20260510034850 | 52 | 0 | 0.9 | 1.7 | 0.00 | 0.51 | 0.00 | 97 | 1000.0 |
| 20260510034350 | 52 | 141 | 0.9 | 1.7 | 0.00 | 0.51 | 0.00 | 97 | 1000.0 |
| 20260510033836 | 52 | 165 | 0.9 | 1.7 | 0.00 | 0.51 | 0.00 | 97 | 1000.0 |
| 20260510033335 | 52 | 155 | 0.9 | 2.6 | 0.00 | 0.51 | 0.00 | 97 | 999.9 |
| 20260510032836 | 52 | 161 | 0.9 | 2.6 | 0.00 | 0.51 | 0.00 | 97 | 1000.0 |
| 20260510032607 | 52 | 0 | 0.9 | 2.6 | 0.00 | 0.51 | 0.00 | 97 | 1000.0 |
| 20260510031820 | 52 | 160 | 0.9 | 2.6 | 0.00 | 0.51 | 0.00 | 97 | 1000.1 |
| 20260510031319 | 52 | 0 | 0.9 | 2.6 | 0.00 | 0.51 | 0.00 | 97 | 999.9 |
| 20260510030819 | 52 | 0 | 0.9 | 2.6 | 0.00 | 0.51 | 0.00 | 97 | 999.9 |
| 20260510030320 | 52 | 147 | 0.9 | 1.7 | 0.00 | 0.51 | 0.00 | 97 | 999.9 |
| 20260510025820 | 52 | 174 | 0.9 | 1.7 | 0.00 | 0.51 | 0.00 | 97 | 999.8 |
| 20260510025319 | 52 | 160 | 0.9 | 1.7 | 0.00 | 0.51 | 0.00 | 97 | 999.7 |
| 20260510024819 | 52 | 0 | 0.9 | 1.7 | 0.00 | 0.51 | 0.00 | 97 | 999.7 |
| 20260510024320 | 53 | 156 | 0.0 | 1.7 | 0.00 | 0.51 | 0.00 | 97 | 999.7 |
| 20260510023819 | 53 | 305 | 0.0 | 1.7 | 0.00 | 0.51 | 0.00 | 97 | 999.9 |
| 20260510023320 | 53 | 172 | 0.0 | 1.7 | 0.00 | 0.51 | 0.00 | 97 | 1000.0 |
| 20260510022820 | 53 | 188 | 0.0 | 0.9 | 0.00 | 0.51 | 0.00 | 97 | 1000.0 |
| 20260510022550 | 53 | 0 | 0.0 | 0.9 | 0.00 | 0.51 | 0.00 | 97 | 1000.1 |
| 20260510021806 | 53 | 0 | 0.0 | 0.9 | 0.00 | 0.51 | 0.00 | 97 | 1000.1 |
| 20260510021537 | 53 | 0 | 0.0 | 0.0 | 0.00 | 0.51 | 0.00 | 97 | 1000.0 |
| 20260510020807 | 53 | 0 | 0.0 | 0.0 | 0.00 | 0.51 | 0.00 | 97 | 1000.0 |
| 20260510020306 | 53 | 0 | 0.0 | 0.0 | 0.00 | 0.51 | 0.00 | 97 | 1000.1 |
| 20260510015807 | 53 | 0 | 0.0 | 0.9 | 0.00 | 0.51 | 0.00 | 97 | 1000.1 |
| 20260510015307 | 53 | 0 | 0.0 | 1.7 | 0.00 | 0.51 | 0.00 | 97 | 1000.1 |
| 20260510014807 | 53 | 149 | 0.0 | 1.7 | 0.00 | 0.51 | 0.00 | 97 | 1000.1 |
| 20260510014539 | 53 | 0 | 0.0 | 0.9 | 0.00 | 0.51 | 0.00 | 97 | 1000.1 |
| 20260510014037 | 53 | 162 | 0.0 | 0.9 | 0.00 | 0.51 | 0.00 | 97 | 1000.2 |
| 20260510013308 | 53 | 0 | 0.0 | 0.9 | 0.00 | 0.51 | 0.00 | 97 | 1000.2 |
| 20260510012808 | 53 | 0 | 0.0 | 0.9 | 0.00 | 0.51 | 0.00 | 97 | 1000.0 |
| 20260510012253 | 53 | 0 | 0.0 | 0.9 | 0.00 | 0.51 | 0.00 | 97 | 999.9 |
| 20260510011753 | 53 | 0 | 0.0 | 0.9 | 0.00 | 0.51 | 0.00 | 97 | 999.9 |
| 20260510011253 | 53 | 0 | 0.0 | 0.0 | 0.00 | 0.51 | 0.00 | 97 | 999.9 |
| 20260510010753 | 53 | 105 | 0.0 | 0.0 | 0.00 | 0.51 | 0.00 | 97 | 999.8 |
| 20260510010253 | 53 | 0 | 0.0 | 0.9 | 0.00 | 0.51 | 0.00 | 97 | 999.8 |
| 20260510010134 | 53 | 191 | 0.0 | 1.7 | 0.02 | 0.51 | 0.00 | 97 | 999.6 |
| 20260510010025 | 53 | 0 | 0.0 | 0.9 | 0.01 | 0.51 | 0.00 | 97 | 999.7 |
| 20260510004752 | 53 | 160 | 0.0 | 1.7 | 0.03 | 0.51 | 0.00 | 97 | 999.5 |
| 20260510004253 | 53 | 164 | 0.9 | 2.6 | 0.04 | 0.51 | 0.00 | 97 | 999.5 |
| 20260510003753 | 53 | 188 | 0.9 | 2.6 | 0.05 | 0.51 | 0.00 | 97 | 999.5 |
| 20260510003253 | 53 | 108 | 0.9 | 1.7 | 0.05 | 0.51 | 0.00 | 97 | 999.5 |
| 20260510002753 | 53 | 125 | 0.9 | 1.7 | 0.06 | 0.51 | 0.00 | 97 | 999.4 |
| 20260510002239 | 53 | 146 | 0.9 | 2.6 | 0.07 | 0.51 | 0.00 | 97 | 999.3 |
| 20260510001739 | 53 | 151 | 0.9 | 2.6 | 0.07 | 0.51 | 0.00 | 97 | 999.4 |
| 20260510001234 | 53 | 181 | 0.9 | 2.6 | 0.09 | 0.51 | 0.00 | 97 | 999.4 |
| 20260510001000 | 53 | 129 | 0.9 | 2.6 | 0.10 | 0.51 | 0.00 | 97 | 999.5 |
| 20260510000236 | 53 | 193 | 0.9 | 2.6 | 0.12 | 0.50 | 0.61 | 97 | 999.5 |
| 20260510000229 | 53 | 171 | 0.9 | 2.6 | 0.11 | 0.51 | 0.00 | 97 | 999.5 |
| 20260509235849 | 53 | 137 | 1.7 | 2.6 | 0.13 | 0.50 | 0.61 | 97 | 999.5 |
| 20260509234729 | 53 | 0 | 1.7 | 3.5 | 0.13 | 0.48 | 0.59 | 97 | 999.7 |
| 20260509234228 | 53 | 142 | 1.7 | 3.5 | 0.12 | 0.47 | 0.58 | 97 | 999.8 |
| 20260509233728 | 53 | 280 | 1.7 | 3.5 | 0.13 | 0.46 | 0.57 | 97 | 999.8 |
| 20260509233227 | 53 | 109 | 0.9 | 2.6 | 0.14 | 0.46 | 0.57 | 97 | 999.8 |
| 20260509232727 | 53 | 0 | 0.9 | 2.6 | 0.15 | 0.46 | 0.57 | 97 | 999.8 |
| 20260509232227 | 53 | 128 | 0.9 | 2.6 | 0.15 | 0.44 | 0.56 | 97 | 999.9 |
| 20260509231727 | 53 | 141 | 1.7 | 3.5 | 0.15 | 0.44 | 0.55 | 97 | 999.8 |
| 20260509231458 | 53 | 152 | 1.7 | 3.5 | 0.15 | 0.43 | 0.54 | 97 | 999.9 |
| 20260509230959 | 53 | 0 | 0.9 | 3.5 | 0.14 | 0.41 | 0.52 | 97 | 1000.0 |
| 20260509230225 | 53 | 159 | 0.9 | 2.6 | 0.13 | 0.40 | 0.51 | 97 | 1000.1 |
| 20260509225723 | 53 | 169 | 0.9 | 2.6 | 0.11 | 0.39 | 0.50 | 97 | 1000.2 |
| 20260509225223 | 53 | 155 | 0.9 | 2.6 | 0.09 | 0.37 | 0.48 | 97 | 1000.2 |
| 20260509224722 | 53 | 0 | 1.7 | 2.6 | 0.08 | 0.35 | 0.46 | 97 | 1000.2 |
| 20260509224222 | 53 | 155 | 1.7 | 3.5 | 0.07 | 0.35 | 0.46 | 96 | 1000.3 |
| 20260509223722 | 53 | 145 | 1.7 | 3.5 | 0.06 | 0.33 | 0.44 | 96 | 1000.4 |
| 20260509223222 | 53 | 147 | 1.7 | 3.5 | 0.05 | 0.32 | 0.43 | 96 | 1000.4 |
| 20260509222954 | 53 | 168 | 1.7 | 3.5 | 0.05 | 0.31 | 0.42 | 96 | 1000.4 |
| 20260509222223 | 53 | 153 | 0.9 | 3.5 | 0.05 | 0.30 | 0.41 | 96 | 1000.5 |
| 20260509221723 | 53 | 101 | 0.9 | 2.6 | 0.04 | 0.29 | 0.40 | 96 | 1000.5 |
| 20260509221222 | 53 | 0 | 0.9 | 2.6 | 0.04 | 0.28 | 0.39 | 96 | 1000.4 |
| 20260509220723 | 53 | 194 | 0.9 | 2.6 | 0.05 | 0.28 | 0.39 | 96 | 1000.4 |
| 20260509220223 | 53 | 148 | 0.9 | 2.6 | 0.06 | 0.28 | 0.39 | 96 | 1000.3 |
| 20260509215723 | 53 | 99 | 0.9 | 2.6 | 0.06 | 0.28 | 0.39 | 96 | 1000.4 |
| 20260509215223 | 53 | 0 | 0.9 | 2.6 | 0.07 | 0.28 | 0.39 | 96 | 1000.3 |
| 20260509214719 | 52 | 172 | 0.9 | 2.6 | 0.08 | 0.27 | 0.38 | 96 | 1000.3 |
| 20260509214451 | 52 | 0 | 0.9 | 2.6 | 0.09 | 0.27 | 0.38 | 96 | 1000.2 |